{"data":{"norad_id":56113,"intl_designator":"2023-046W","name":"STARLINK-6113","alt_names":[],"object_type":"PAYLOAD","status":"ACTIVE","operator":null,"country":"US","launch_date":"2023-03-29","launch_site_code":"AFETR","launch_vehicle":null,"mission":null,"orbit_class":"UNKNOWN","rcs_meters":null,"size_class":null,"mass_kg":null,"dimensions":null,"purposes":["comms"],"wikipedia_slug":null,"has_3d_model":false,"image_url":null,"decayed_at":null,"tle_current":{"epoch":"2026-05-25T02:45:00.831744Z","epoch_age_seconds":61273,"freshness":"FRESH","line1":"1 56113U 23046W   26145.11459296  .00000134  00000+0  14405-4 0  9991","line2":"2 56113  43.0064  89.6036 0001455 267.8548  92.2137 15.27572876173726","mean_motion":15.27572876,"eccentricity":0.0001455,"inclination_deg":43.0064,"raan_deg":89.6036,"arg_perigee_deg":267.8548,"mean_anomaly_deg":92.2137,"bstar":1.4405e-5,"rev_number":17372,"period_min":94.267188336748,"perigee_km":482.07212226064,"apogee_km":484.06873362217,"semimajor_km":6861.2074279414,"source":"CELESTRAK","updated_at":"2026-05-25T13:38:17.956922Z"}}}